Location: Bushrod
(6.3500°N, 10.7833°W)
Time: 04:09:21
(UTC+00:00)

APEX - Pass Details

Date: 17 September 2019
Orbit: 334 x 1126 km, 69.9° (Epoch: 18 October)

Event Time Altitude Azimuth Distance (km) Brightness Sun altitude
Rises 19:31:11 0° 330° (NNW) 2,141 6.8 -13.1°
Reaches altitude 10° 19:33:16 10° 320° (NW) 1,269 5.8 -13.6°
Maximum altitude 19:35:44 32° 253° (WSW) 599 4.2 -14.2°
Drops below altitude 10° 19:38:14 10° 187° (S) 1,282 5.2 -14.8°
Sets 19:40:20 0° 177° (S) 2,168 6.3 -15.3°
